Location: Unspecified
(0.0000°N, 0.0000°E)
Time: 20:04:31
(UTC+00:00)

OTV 5 (USA 277) - Pass Details

Date: 21 January 2018
Orbit: 404 x 417 km, 43.0° (Epoch: 07 September)

Event Time Altitude Azimuth Distance (km) Brightness Sun altitude
Exits shadow 05:02:44 25° 238° (WSW) 844 ? -16.1°
Maximum altitude 05:03:07 26° 225° (SW) 829 ? -16.0°
Drops below altitude 10° 05:05:55 10° 166° (SSE) 1,451 ? -15.3°
Sets 05:08:13 0° 153° (SSE) 2,312 ? -14.8°
